Location: Unspecified
(0.0000°N, 0.0000°E)
Time: 05:41:10
(UTC+00:00)

Vanguard 3 - Visible Passes

Search period start: 23 September 2017 00:00
Search period end: 03 October 2017 00:00
Orbit: 509 x 3264 km, 33.3° (Epoch: 22 September)

Date Brightness Start Highest point End Pass type
(mag) Time Alt. Az. Time Alt. Az. Time Alt. Az.
23 Sep 9.9 19:19:23 10° NW 19:34:13 59° NE 19:43:20 37° E visible
23 Sep 10.1 21:33:22 10° WNW 21:47:58 60° WSW 21:47:58 60° WSW visible
24 Sep 10.1 18:06:03 10° NNW 18:17:58 38° NE 18:34:26 11° E visible
24 Sep 9.8 20:17:53 10° NW 20:34:22 89° SW 20:39:05 64° SE visible
24 Sep 10.9 22:34:51 10° W 22:43:45 30° WSW 22:43:45 30° WSW visible
25 Sep 9.8 19:03:38 10° NW 19:17:42 66° NE 19:30:20 28° ESE visible
25 Sep 10.1 21:17:41 10° WNW 21:34:57 59° SW 21:35:01 59° SW visible
25 Sep 11.5 23:39:04 10° WSW 00:11:56 - SE 23:39:41 11° WSW visible
26 Sep 11.0 02:16:29 11° S 02:16:29 11° S 02:17:54 10° S visible
26 Sep 10.6 04:32:47 10° S 04:33:44 10° S 04:34:39 10° SSE visible
26 Sep 10.0 17:50:23 10° NNW 18:01:44 43° NE 18:18:46 10° ESE visible
26 Sep 9.8 20:02:13 10° WNW 20:17:46 81° SW 20:26:23 45° SE visible
26 Sep 10.8 22:19:26 10° W 22:31:05 34° SW 22:31:05 34° SW visible
27 Sep 10.9 03:16:17 10° S 03:17:16 10° S 03:18:12 10° S visible
27 Sep 9.9 05:28:34 10° SSW 05:34:20 18° SSE 05:38:30 10° ESE visible
27 Sep 9.7 18:48:00 10° NW 19:01:14 73° NE 19:17:53 17° ESE visible
27 Sep 10.3 21:02:11 10° WNW 21:18:29 52° SSW 21:22:35 48° S visible
27 Sep 11.4 23:23:59 10° WSW 23:56:27 - SE 23:27:17 15° WSW visible
28 Sep 11.1 02:01:00 12° S 02:01:00 12° S 02:04:27 10° SSE visible
28 Sep 10.5 04:13:26 10° SSW 04:18:52 14° SSE 04:23:08 10° SE visible
28 Sep 9.9 19:46:42 10° WNW 20:01:17 72° SW 20:14:13 29° SE visible
28 Sep 10.8 22:04:14 10° W 22:18:55 33° SSW 22:18:55 33° SSW visible
29 Sep11.300:51:02SSE00:51:02SSE00:23:37WSWvisible
29 Sep 10.8 02:56:48 10° SSW 03:02:23 13° S 03:07:00 10° SSE visible
29 Sep 9.7 05:11:27 10° SSW 05:19:22 26° SSE 05:24:31 10° ESE visible
29 Sep 9.6 18:32:30 10° NW 18:44:52 82° NE 19:04:22 10° ESE visible
29 Sep 10.4 20:46:53 10° W 21:02:11 46° SSW 21:10:37 34° SSE visible
29 Sep 11.3 23:09:04 10° WSW 23:15:20 18° SW 23:15:20 18° SW visible
30 Sep 11.1 01:45:42 13° S 01:45:42 13° S 01:50:53 10° SSE visible
30 Sep 10.3 03:55:46 10° SSW 04:03:54 19° SSE 04:09:41 10° ESE visible
30 Sep 10.0 19:31:21 10° WNW 19:44:57 64° SSW 20:02:22 15° SE visible
30 Sep 10.9 21:49:14 10° WSW 22:04:03 30° SSW 22:07:04 29° SSW visible
01 Oct11.400:35:55SSE00:35:55SSE00:11:47SWvisible
01 Oct 10.8 02:40:29 12° SSW 02:47:24 16° S 02:53:50 10° SE visible
01 Oct 9.4 04:54:28 10° SW 05:04:17 35° SSE 05:10:13 10° E visible
01 Oct 9.5 18:17:08 10° NW 18:28:37 89° SW 18:47:34 10° SE visible
01 Oct 10.6 20:31:47 10° W 20:46:02 41° SSW 20:58:49 21° SSE visible
01 Oct 11.3 22:54:15 10° WSW 23:03:31 19° SSW 23:03:31 19° SSW visible
02 Oct 11.1 01:30:49 15° S 01:30:49 15° S 01:37:12 10° SE visible
02 Oct 10.2 03:38:23 10° SSW 03:48:49 25° SSE 03:55:44 10° ESE visible
02 Oct 10.1 19:16:10 10° WNW 19:28:48 56° SSW 19:47:45 10° SE visible
02 Oct 11.0 21:34:27 10° WSW 21:48:14 27° SSW 21:55:10 22° S visible
